[ hide orbit diagram ]
For accurate long-term ephemerides, please instead use our Horizons system.This orbit viewer was implemented using two-body methods, and hence should not be used for determining accurate long-term trajectories (over several years or decades) or planetary encounter circumstances.
Orbital Elements at Epoch 2459000.5 (2020-May-31.0) TDB
Reference: JPL 36 (heliocentric ecliptic J2000)
Element | Value | Uncertainty (1-sigma) | Units |
e | .2012847191803311 | 4.0639e-08 | |
a | 3.003636092826949 | 1.4818e-08 | au |
q | 2.39905004536237 | 1.1977e-07 | au |
i | 12.52786705395271 | 3.4128e-06 | deg |
node | 151.3458802030813 | 2.0499e-05 | deg |
peri | 82.48341011122528 | 2.1744e-05 | deg |
M | 203.3257329539182 | 8.9726e-06 | deg |
tp | 2459827.993458472400 (2022-Sep-05.49345847) | 5.0314e-05 | TDB |
period | 1901.382088243278 5.21 | 1.4071e-05 3.852e-08 | d yr |
n | .1893359584199148 | 1.4011e-09 | deg/d |
Q | 3.608222140291528 | 1.7801e-08 | au |
|
| | Orbit Determination Parameters
Additional Information
|
[ show covariance matrix ]
Physical Parameter Table
Parameter |
Symbol |
Value |
Units |
Sigma |
Reference |
Notes |
absolute magnitude |
H |
12.9 |
|
n/a |
MPO502278 |
|
diameter |
diameter |
9.604 |
km |
0.152 |
urn:nasa:pds:neowise_diameters_albedos::2.0[mainbelt] (http://adsabs.harvard.edu/abs/2011ApJ...741...68M) |
|
geometric albedo |
albedo |
0.159 |
|
0.023 |
urn:nasa:pds:neowise_diameters_albedos::2.0[mainbelt] (http://adsabs.harvard.edu/abs/2011ApJ...741...68M) |
|
|
14308 Hardeman | Discovered 1977 Oct. 16 by C. J. van Houten and I. van Houten-Groeneveld on Palomar Schmidt plates taken by T. Gehrels. |
Sjoerd Hardeman (1982-2011) was a member of the Jongeren WerkGroep voor sterrenkunde (Dutch Youth Association for astronomy). He was a leader on several astronomy holiday camps and gave many presentations on astronomy. He died from leukemia shortly before defending his PhD. |
NOTE: some special characters may not display properly (any characters within {} are an attempt to place the proper accent above a character) |
Reference: MPC batch dated 2018-10-26 | Last Updated: 2019-04-09 |
|
[ hide close-approach data ]
Close-Approach Data ...sorted by Date/Time (TDB)
|
Date/Time (TDB) |
Time Uncertainty (days_HH:MM) |
Body |
Nominal Distance (au) |
Minimum Distance (au) |
Maximum Distance (au) |
V-relative (km/s) |
V-infinity (km/s) |
JD (TDB) |
Time Uncertainty (minutes) |
Semi-major axis (km) |
Semi-minor axis (km) |
range-LOV angle (deg) |
N-sigma |
BP |
Orbit Ref. |
Reference |
Modified |
1905-Mar-21 05:58 |
00:03 |
Jupiter |
1.58768295694556 |
1.58768214394392 |
1.5876837699508 |
1.78930430594571 |
1.46103315770908 |
2416925.748439551 |
2.86634738523085 |
289.254456138056 |
185.153136958207 |
11.8989512212826 |
599108.638968235 |
T |
36 |
CATAB v2.0f-lin.ifort 2020-Dec-18 02:56:18 |
2020-Dec-18 02:56 |
1951-Jun-21 10:21 |
00:02 |
Jupiter |
1.70991320037338 |
1.70991228505934 |
1.7099141156915 |
3.38506514593368 |
3.23542055135404 |
2433818.931090631 |
1.52547015700534 |
163.706498668655 |
20.0977353372362 |
-79.0968147779973 |
2734782.63554742 |
T |
36 |
CATAB v2.0f-lin.ifort 2020-Dec-18 02:56:18 |
2020-Dec-18 02:56 |
1988-Dec-08 03:37 |
< 00:01 |
Jupiter |
1.68281757880869 |
1.68281696060209 |
1.68281819701568 |
0.6504558361158 |
n/a |
2447503.650450659 |
0.848450033736531 |
156.655386871228 |
29.7646222182959 |
87.0090934170177 |
8444377.17556169 |
F |
36 |
CATAB v2.0f-lin.ifort 2020-Dec-18 02:56:18 |
2020-Dec-18 02:56 |
2035-Jan-28 19:37 |
< 00:01 |
Jupiter |
1.61077965630083 |
1.61077919893952 |
1.61078011366215 |
2.59060510641007 |
2.37897924024526 |
2464356.317190254 |
0.533137637339204 |
78.6391835428397 |
26.9058252417265 |
-85.4852073562586 |
1821349.98611355 |
T |
36 |
CATAB v2.0f-lin.ifort 2020-Dec-18 02:56:18 |
2020-Dec-18 02:56 |
2072-Sep-11 12:27 |
00:02 |
Jupiter |
1.82216565588065 |
1.82216482748429 |
1.82216648427587 |
1.69530763183977 |
1.39441035851147 |
2478097.018872024 |
1.67499116404505 |
207.222081910685 |
95.3626205947817 |
18.7130579197812 |
747637.914213016 |
T |
36 |
CATAB v2.0f-lin.ifort 2020-Dec-18 02:56:18 |
2020-Dec-18 02:56 |
2081-May-04 21:37 |
00:02 |
Jupiter |
1.96755842351075 |
1.96755717475498 |
1.96755967226874 |
4.30643857179957 |
4.20528533466189 |
2481254.400875777 |
1.51061134590095 |
131.371668168826 |
22.5408164120487 |
-66.0840848878888 |
3581787.93666362 |
T |
36 |
CATAB v2.0f-lin.ifort 2020-Dec-18 02:56:18 |
2020-Dec-18 02:56 |
2118-Sep-22 03:12 |
00:03 |
Jupiter |
1.59936551653495 |
1.59936504172974 |
1.59936599134052 |
1.54107502166597 |
1.14704579259608 |
2494907.632992942 |
2.76708380377283 |
626.213322664942 |
183.386362410983 |
-23.3267808782705 |
675442.984186368 |
T |
36 |
CATAB v2.0f-lin.ifort 2020-Dec-18 02:56:18 |
2020-Dec-18 02:56 |
2156-May-17 15:58 |
00:04 |
Jupiter |
1.97935270207232 |
1.97935063542903 |
1.979354768729 |
3.05966383006015 |
2.91645069538993 |
2508660.165490962 |
3.54696164955304 |
295.542939211899 |
20.8330076339205 |
-79.3135936676922 |
2056223.79075017 |
T |
36 |
CATAB v2.0f-lin.ifort 2020-Dec-18 02:56:18 |
2020-Dec-18 02:56 |
2164-Dec-08 19:04 |
00:04 |
Jupiter |
1.78656671203444 |
1.78656451282855 |
1.78656891126257 |
3.49565356417078 |
3.3572877833983 |
2511787.294185990 |
3.60159343131649 |
346.749553297883 |
20.3517975058488 |
-76.1318826742622 |
2832577.48464287 |
T |
36 |
CATAB v2.0f-lin.ifort 2020-Dec-18 02:56:18 |
2020-Dec-18 02:56 |
|
|